Regional Weather Roundup
Issued by NWS

Home | Current Version | Previous Version | Graphics & Text | Print | Product List | Glossary Off
Versions: 1 2 3 4 5 6 7 8 9 10 11 12 13 14 15 16 17 18 19 20 21 22 23 24 25 26 27 28 29 30 31 32 33 34 35 36 37 38 39 40 41 42 43 44 45 46 47 48 49 50

000
ASUS43 KFSD 232110
RWRSD

WEATHER ROUNDUP FOR SOUTH DAKOTA
NATIONAL WEATHER SERVICE SIOUX FALLS SD
400 PM CDT WED APR 23 2014

NOTE: "FAIR" INDICATES FEW OR NO CLOUDS BELOW 12,000 FEET WITH NO
SIGNIFICANT WEATHER AND/OR OBSTRUCTIONS TO VISIBILITY.


SDZ001>005-009-010-012>017-232200-
NORTHWEST AND NORTH CENTRAL SOUTH DAKOTA

CITY           SKY/WX    TMP DP  RH WIND       PRES   REMARKS
BUFFALO          N/A     53  35  50 NW24G35   29.59R
FAITH            N/A     56  41  57 NW30G39   29.60R
MOBRIDGE       CLOUDY    61  46  57 S12       29.53R
$$

SDZ012>016-024>037-041>051-057-063-072>074-232200-
SOUTHWEST AND SOUTH CENTRAL SOUTH DAKOTA

CITY           SKY/WX    TMP DP  RH WIND       PRES   REMARKS
RAPID CTY ARPT PTSUNNY   54  39  57 N35G48    29.61R
PIERRE         CLOUDY    73  44  35 S7        29.48F
CUSTER         PTSUNNY   54  27  35 NW14G22   29.67R
ELLSWORTH AFB  PTSUNNY   53  39  59 N31G43    29.62R
PHILIP         PTSUNNY   71  46  40 NW23G30   29.53R
PINE RIDGE     SUNNY     69  25  19 W24G33    29.60S
SPEARFISH      PTSUNNY   50  37  62 W16G23    29.71S
WINNER         FAIR      77  43  29 NW14G20   29.51S
$$

SDZ004>011-016>023-039-040-232200-
NORTHEAST SOUTH DAKOTA

CITY           SKY/WX    TMP DP  RH WIND       PRES   REMARKS
ABERDEEN       CLOUDY    58  39  49 SE25G40   29.61F
WATERTOWN      PTSUNNY   51  36  56 SE21G32   29.70F
SISSETON         N/A     42  38  85 S22G33    29.77R
$$

SDZ017-020-022-023-036>040-048>070-232200-
SOUTHEAST SOUTH DAKOTA

CITY           SKY/WX    TMP DP  RH WIND       PRES   REMARKS
SIOUX FALLS    PTSUNNY   61  40  45 SE24G38   29.66F
HURON          MOSUNNY   68  40  35 SE22G36   29.55F
CHAMBERLAIN      N/A     76  44  32 MISG      29.50S
MITCHELL       PTSUNNY   69  42  37 SE26G37   29.56F
YANKTON        PTSUNNY   68  45  42 SE29G36   29.61F
$$

ABBREVIATIONS USED IN REMARKS
   TC - TEMPERATURE IN CELSIUS
  WCI - WIND CHILL INDEX
   HX - HEAT INDEX
  VSB - VISIBILITY




USA.gov is the U.S. government's official web portal to all federal, state and local government web resources and services.